SCP
0 -0 0 0 -0 0 0 0 0 1 2 2 2 2 2 2 2 2 2 2 2 2 2 2 2 2 1 1 1 1 1 1 0 1 1 0 1 1 1 2 1 1 1
0 -0 0 0 -0 0 0 1 1 3 2 1 2 1 1 2 2 2 2 2 2 2 2 1 1 0 0 1 0 0 0 0 0 0 0 0 0 0 1 1 1 1 1
-0 0 0 0 0 0 0 1 2 2 2 1 2 2 2 2 2 2 2 2 2 2 1 0 0 0 0 0 0 0 0 0 0 0 0 0 0 0 0 0 1 1 2
0 0 -0 0 -0 -0 0 0 1 1 2 2 1 1 1 1 1 2 2 1 0 0 0 0 0 0 0 0 0 0 0 0 0 0 0 0 0 0 0 0 0 1 1
0 0 0 -0 -0 0 0 0 0 1 1 1 1 1 1 1 0 0 0 0 0 0 0 0 0 0 0 0 0 0 0 0 0 0 0 0 0 0 0 0 0 0 0
0 0 0 0 0 0 0 0 0 0 1 1 1 1 0 0 0 0 0 0 0 0 0 0 0 0 0 0 0 0 0 0 0 0 0 0 0 0 0 0 0 0 0
0 0 0 0 0 0 0 0 0 0 0 0 0 0 0 0 0 0 0 0 0 0 0 0 0 0 0 0 0 0 0 0 0 0 0 0 0 0 0 0 0 0 0
0 0 0 0 0 0 0 0 0 0 0 0 0 0 0 0 0 0 0 0 0 0 0 0 0 1 1 0 1 0 0 1 0 0 0 0 0 0 0 0 0 0 0
0 0 0 0 0 0 0 0 0 0 0 0 0 0 0 0 0 0 0 0 0 0 0 0 0 0 1 1 3 1 2 1 1 1 1 0 0 0 0 0 0 0 0
0 0 0 0 0 0 0 0 0 0 0 0 0 0 0 0 0 0 0 0 0 0 0 0 0 0 1 1 3 2 2 2 0 0 1 1 0 0 0 0 0 0 0
0 0 0 0 0 0 0 0 0 0 0 0 0 0 0 0 0 0 0 0 0 0 0 0 0 0 0 0 2 2 1 1 2 1 1 1 1 0 0 0 0 0 0
0 0 0 0 0 0 0 0 0 0 0 0 0 0 0 0 0 0 0 0 0 0 0 0 0 0 0 0 0 0 1 1 1 1 1 0 0 2 1 0 1 0 0
0 0 0 0 0 0 0 0 0 0 0 0 0 0 0 0 0 0 0 0 0 0 0 0 0 0 0 0 0 0 0 0 1 1 1 1 1 1 1 1 1 0 0
0 0 0 0 0 0 0 0 0 0 0 0 0 0 0 0 0 0 0 0 0 0 0 0 0 0 0 0 0 0 0 0 0 0 1 1 1 1 1 1 1 1 1
0 0 0 0 0 0 0 0 0 0 0 0 0 0 0 0 0 0 0 0 0 0 0 0 0 0 0 0 0 0 0 0 0 0 0 0 0 0 0 1 1 1 0
0 0 0 0 0 0 0 0 0 0 0 0 0 0 0 0 0 0 0 0 0 0 0 0 0 0 0 0 0 0 0 0 0 0 0 0 0 0 0 0 0 0 1
0 0 0 0 0 0 0 0 0 0 0 0 0 0 0 0 0 0 0 0 0 0 0 0 0 0 0 0 0 0 0 0 0 0 0 0 0 0 0 0 0 0 0
0 0 0 0 0 0 0 0 0 0 0 0 0 0 0 0 0 0 0 0 0 0 0 0 0 0 0 0 0 0 0 0 0 0 0 0 0 0 0 0 0 0 0
0 0 0 0 0 0 0 0 0 0 0 0 0 0 0 0 0 0 0 0 0 0 0 0 0 0 0 0 0 0 0 0 0 0 0 0 0 0 0 0 0 0 0
0 0 0 0 0 0 0 0 0 0 0 0 0 0 0 0 0 0 0 0 0 0 0 0 0 0 0 0 0 0 0 0 0 0 0 0 0 0 -0 0 0 0 0
0 0 0 0 0 0 0 0 0 0 0 0 0 0 0 0 0 0 0 0 0 0 0 0 0 0 0 0 0 0 0 0 0 0 0 -0 0 0 0 0 0 0 0
0 0 0 0 0 0 0 0 0 0 0 0 0 0 -0 0 0 0 0 0 0 0 0 0 0 0 0 0 0 0 0 0 0 0 -0 -0 0 0 0 0 -0 -0 -0
0 0 0 0 0 0 0 0 0 0 0 0 0 0 0 0 0 0 0 0 0 0 0 0 0 0 0 -0 -0 -0 0 0 0 0 0 -0 0 0 0 -0 -0 -0 -0
0 0 0 0 0 0 -0 -0 0 0 0 0 0 0 0 0 0 0 0 0 0 0 0 0 0 -0 -0 0 0 0 0 -0 0 0 0 0 0 0 0 0 -0 0 -0
0 0 0 0 -0 -0 -0 -0 0 0 0 0 0 0 0 0 0 0 0 0 0 0 0 0 -0 -0 -0 -0 -0 -0 0 0 0 0 0 -0 0 0 0 -0 -0 -0 -0
0 0 0 -0 -0 -0 -0 0 0 -0 0 0 0 0 0 0 0 0 0 0 0 -0 0 0 0 0 0 -0 -0 -0 -0 0 0 0 -0 0 0 0 -0 -0 -0 -0 -0
Wind_Speed_500mb
103 66 61 73 65 41 42 45 42 43 48 45 40 38 39 35 37 37 36 33 32 32 33 26 28 27 27 27 28 30 31 35 35 43 49 52 55 56 56 55 56 58 57
99 60 52 48 65 48 41 48 43 54 49 44 41 30 31 30 30 29 33 34 34 34 31 31 29 29 24 34 30 28 29 35 34 41 47 56 55 50 54 53 50 50 50
84 53 54 58 48 54 35 50 72 72 56 42 40 43 30 31 30 29 27 30 31 33 32 32 29 33 33 26 30 26 29 33 34 37 44 49 54 54 48 44 46 43 43
62 50 64 67 58 67 54 54 64 58 50 51 35 34 25 24 24 26 25 29 31 32 32 32 33 33 24 28 26 24 25 27 33 36 40 46 52 58 64 56 56 52 46
36 49 54 64 54 29 36 42 45 39 40 34 29 24 23 19 15 19 23 28 31 32 32 35 34 34 31 31 31 32 31 27 31 34 37 45 49 48 55 63 59 58 58
22 20 35 21 25 29 27 28 27 24 22 24 28 28 20 18 16 16 18 21 25 30 38 41 41 42 42 41 40 40 41 40 35 34 34 39 44 48 52 60 59 60 61
24 25 20 18 14 13 13 13 20 28 30 30 30 30 29 28 22 23 16 27 30 34 38 43 48 43 48 51 53 49 52 48 42 38 35 37 42 45 48 55 60 63 63
33 34 31 27 23 25 24 22 20 22 26 26 25 25 27 23 28 26 35 36 33 38 41 44 45 50 54 50 52 54 57 52 50 49 48 43 43 44 46 52 55 61 61
37 39 37 35 33 30 27 21 15 16 15 18 23 29 35 39 44 47 52 48 52 46 53 53 62 67 59 59 62 61 62 61 61 56 59 58 51 48 48 48 49 53 60
31 34 33 32 29 25 21 16 11 3 6 14 23 29 37 41 46 51 55 60 64 67 71 71 71 68 63 59 64 68 68 69 70 63 62 68 58 56 54 52 56 58 64
27 26 26 26 25 23 21 14 10 12 14 20 27 33 39 44 50 54 57 59 64 68 70 69 68 68 64 61 67 72 73 73 73 72 73 72 72 69 65 62 61 61 62
22 19 20 19 18 18 15 14 15 16 19 27 34 41 47 51 56 60 65 68 72 72 74 74 68 66 66 65 66 72 77 82 84 83 80 81 74 75 76 71 71 71 69
14 14 15 15 16 17 19 22 25 27 33 37 39 45 51 55 58 61 63 65 64 62 60 59 61 63 64 67 70 73 77 82 89 92 91 90 84 85 81 78 75 75 70
7 7 9 12 15 20 24 27 29 31 35 39 42 45 48 51 54 55 53 50 49 49 49 51 55 57 61 65 68 71 75 81 85 86 90 95 95 93 89 83 83 79 77
1 6 10 15 19 22 24 27 30 35 38 42 44 46 47 47 47 47 46 46 46 47 49 52 53 54 55 57 57 62 65 68 75 83 87 91 93 99 99 93 88 83 82
9 15 20 26 29 30 33 35 39 40 41 43 48 47 45 44 45 45 45 45 47 48 49 52 52 56 57 56 63 69 65 68 72 75 77 81 85 97 100 102 103 104 97
10 18 24 26 29 32 35 41 44 43 44 43 43 43 42 43 42 44 46 47 48 49 53 56 54 58 59 62 66 68 66 69 66 69 76 75 79 84 86 92 93 94 100
25 28 30 31 32 35 38 39 40 40 40 41 40 39 41 44 45 46 48 49 48 56 58 61 63 66 68 68 67 62 63 67 69 62 65 67 73 71 76 82 87 87 86
27 28 31 35 38 38 40 40 40 38 36 36 37 40 42 44 44 46 47 48 50 52 56 54 56 56 58 58 54 52 57 60 61 55 61 58 59 63 70 84 90 92 94
29 34 37 38 37 37 37 36 36 33 32 33 38 39 41 43 46 47 48 51 52 57 52 54 52 54 56 49 50 49 51 49 50 49 46 49 49 51 73 91 105 115 107
34 37 36 36 35 36 33 34 32 33 31 34 36 40 41 44 46 49 49 51 57 52 51 54 54 50 49 46 33 28 40 45 46 43 43 33 9 30 7 9 22 37 37
37 35 35 34 34 31 32 32 33 28 32 35 41 42 42 46 45 48 47 49 50 49 47 54 54 42 44 40 38 36 45 42 46 48 44 32 16 13 23 25 44 45 44
35 33 35 34 29 30 29 30 27 31 36 39 41 39 40 39 42 44 49 55 52 53 52 48 50 54 38 33 41 41 57 35 41 45 35 27 14 16 12 8 26 24 20
34 32 33 32 35 29 25 24 28 33 35 37 39 39 38 41 44 46 46 47 62 52 44 47 51 44 41 43 37 44 28 21 27 26 27 24 19 15 5 8 16 8 15
32 33 34 34 31 29 27 25 27 32 34 34 37 39 33 36 46 57 48 48 45 44 49 43 39 38 40 46 38 13 10 10 10 15 25 24 19 10 7 12 16 16 14
35 36 31 31 32 30 27 27 28 29 30 32 34 37 32 36 50 58 56 39 31 32 29 30 32 30 46 26 5 10 8 6 2 11 11 20 19 8 13 18 17 15 15
Wind_Direction_500mb
242 259 285 294 280 271 264 241 235 231 227 226 224 221 225 223 221 220 217 217 214 220 231 227 241 243 245 250 251 264 276 278 278 277 281 281 276 274 272 271 267 264 262
230 256 284 262 269 281 266 242 230 237 234 227 224 217 217 217 214 217 220 220 220 223 227 229 236 246 249 269 268 269 273 277 279 282 287 288 288 279 274 273 271 271 266
220 243 252 247 281 289 251 233 232 230 225 215 210 215 201 205 206 208 215 223 219 221 225 245 246 253 263 255 268 277 277 283 281 273 274 285 282 291 281 272 277 271 271
215 234 259 251 262 274 246 232 225 223 218 221 218 217 213 218 215 216 207 219 222 235 246 251 256 261 248 247 260 272 274 276 287 286 280 273 278 284 287 276 272 272 271
238 268 264 263 257 231 211 213 218 219 218 222 219 232 225 219 205 196 220 230 243 245 250 256 252 255 259 258 261 260 274 272 277 284 286 282 279 279 276 281 280 275 273
184 203 224 215 208 214 210 214 215 220 207 190 187 183 189 194 204 225 235 241 244 251 254 254 258 261 261 259 263 265 270 274 269 270 274 280 281 282 281 282 281 281 283
124 119 109 106 122 143 160 164 172 184 184 187 193 201 209 216 228 244 253 244 249 254 258 263 256 257 265 264 266 264 268 267 266 266 271 273 276 281 281 281 283 282 281
102 98 100 102 102 103 112 125 131 155 180 193 204 215 227 238 246 261 252 255 258 258 258 257 260 262 258 255 257 257 260 261 263 264 269 265 270 276 279 279 283 285 284
99 100 99 98 92 91 91 96 120 167 190 216 228 238 247 253 256 261 266 271 263 269 273 271 268 265 261 256 252 254 252 257 257 258 264 264 264 267 270 275 276 280 285
98 93 89 85 85 81 83 90 81 108 239 260 260 263 265 273 277 276 276 275 274 274 273 273 271 268 265 258 255 255 255 252 253 255 256 258 257 259 261 266 272 275 278
98 89 81 74 67 61 56 44 27 5 320 293 288 288 289 288 287 284 282 281 281 280 278 277 275 272 268 263 258 256 254 252 254 254 252 253 255 257 258 261 266 270 272
95 87 77 70 60 48 35 15 348 340 324 308 300 295 290 288 286 285 285 282 280 278 276 274 272 271 268 265 260 258 257 255 255 256 255 254 254 256 260 259 258 263 265
88 64 49 36 25 10 359 344 335 324 313 306 303 297 295 293 290 289 286 285 283 280 277 276 274 272 269 266 262 261 260 258 258 257 255 255 254 253 253 253 256 261 265
95 53 25 10 0 347 335 326 319 315 311 304 300 297 294 292 291 289 287 286 282 281 281 280 279 276 273 270 267 264 262 260 259 259 259 257 254 253 253 252 254 257 261
134 359 344 340 333 322 314 311 306 309 307 303 300 298 296 294 294 291 287 287 286 285 284 284 283 281 278 275 271 267 265 264 264 263 261 261 260 258 255 255 254 255 258
343 336 332 330 324 318 314 311 313 310 308 304 303 302 300 294 290 290 291 291 290 289 287 286 283 279 273 268 261 262 266 264 264 265 265 261 260 259 258 258 255 255 256
321 318 315 314 312 312 310 309 307 307 304 301 300 300 299 298 298 297 298 297 294 291 290 289 285 283 278 274 271 268 268 270 271 270 270 266 266 258 258 258 256 256 256
323 320 316 313 310 307 308 306 308 308 307 307 307 306 305 305 306 306 303 297 293 292 296 296 293 283 278 272 272 274 271 267 271 273 273 269 269 265 258 257 256 255 255
318 314 312 310 310 312 311 312 313 313 313 310 310 313 314 312 308 305 302 301 297 299 297 293 294 287 286 286 277 273 272 269 268 269 271 269 272 267 264 263 263 262 264
318 315 312 312 312 311 313 314 313 313 309 311 316 316 315 310 306 304 303 304 295 301 300 297 294 287 289 289 284 273 266 268 268 270 271 274 269 273 273 269 266 260 262
320 317 316 315 311 313 314 310 309 306 316 317 314 313 312 310 307 306 303 305 304 303 290 296 302 293 290 292 294 289 274 267 268 266 265 269 246 339 96 279 210 199 184
324 321 318 314 316 316 311 307 309 320 314 314 319 320 319 320 314 311 306 309 311 307 296 305 307 302 298 292 303 288 285 268 256 257 255 273 257 111 61 68 101 106 107
323 322 320 318 318 311 313 316 323 312 317 322 327 320 316 319 320 318 317 320 319 309 302 300 302 317 303 298 296 269 306 248 246 253 262 242 195 196 279 143 147 119 129
327 326 325 322 322 332 328 318 311 314 316 327 332 328 317 320 326 329 322 313 324 318 308 307 307 304 303 304 303 311 329 231 203 237 235 204 178 320 325 203 165 146 148
334 331 330 332 334 329 328 322 315 316 330 334 336 334 325 322 329 340 341 330 328 316 324 315 312 313 308 318 328 305 259 191 158 148 194 225 256 202 225 161 138 138 126
341 346 344 344 340 339 337 329 324 327 330 330 338 339 330 330 342 350 349 356 346 343 335 324 322 338 326 357 59 106 105 137 149 143 180 185 170 191 140 127 121 108 102
Wind_Speed_850mb
103 66 61 73 65 41 42 45 42 43 48 45 40 38 39 35 37 37 36 33 32 32 33 26 28 27 27 27 28 30 31 35 35 43 49 52 55 56 56 55 56 58 57
99 60 52 48 65 48 41 48 43 54 49 44 41 30 31 30 30 29 33 34 34 34 31 31 29 29 24 34 30 28 29 35 34 41 47 56 55 50 54 53 50 50 50
84 53 54 58 48 54 35 50 72 72 56 42 40 43 30 31 30 29 27 30 31 33 32 32 29 33 33 26 30 26 29 33 34 37 44 49 54 54 48 44 46 43 43
62 50 64 67 58 67 54 54 64 58 50 51 35 34 25 24 24 26 25 29 31 32 32 32 33 33 24 28 26 24 25 27 33 36 40 46 52 58 64 56 56 52 46
36 49 54 64 54 29 36 42 45 39 40 34 29 24 23 19 15 19 23 28 31 32 32 35 34 34 31 31 31 32 31 27 31 34 37 45 49 48 55 63 59 58 58
22 20 35 21 25 29 27 28 27 24 22 24 28 28 20 18 16 16 18 21 25 30 38 41 41 42 42 41 40 40 41 40 35 34 34 39 44 48 52 60 59 60 61
24 25 20 18 14 13 13 13 20 28 30 30 30 30 29 28 22 23 16 27 30 34 38 43 48 43 48 51 53 49 52 48 42 38 35 37 42 45 48 55 60 63 63
33 34 31 27 23 25 24 22 20 22 26 26 25 25 27 23 28 26 35 36 33 38 41 44 45 50 54 50 52 54 57 52 50 49 48 43 43 44 46 52 55 61 61
37 39 37 35 33 30 27 21 15 16 15 18 23 29 35 39 44 47 52 48 52 46 53 53 62 67 59 59 62 61 62 61 61 56 59 58 51 48 48 48 49 53 60
31 34 33 32 29 25 21 16 11 3 6 14 23 29 37 41 46 51 55 60 64 67 71 71 71 68 63 59 64 68 68 69 70 63 62 68 58 56 54 52 56 58 64
27 26 26 26 25 23 21 14 10 12 14 20 27 33 39 44 50 54 57 59 64 68 70 69 68 68 64 61 67 72 73 73 73 72 73 72 72 69 65 62 61 61 62
22 19 20 19 18 18 15 14 15 16 19 27 34 41 47 51 56 60 65 68 72 72 74 74 68 66 66 65 66 72 77 82 84 83 80 81 74 75 76 71 71 71 69
14 14 15 15 16 17 19 22 25 27 33 37 39 45 51 55 58 61 63 65 64 62 60 59 61 63 64 67 70 73 77 82 89 92 91 90 84 85 81 78 75 75 70
7 7 9 12 15 20 24 27 29 31 35 39 42 45 48 51 54 55 53 50 49 49 49 51 55 57 61 65 68 71 75 81 85 86 90 95 95 93 89 83 83 79 77
1 6 10 15 19 22 24 27 30 35 38 42 44 46 47 47 47 47 46 46 46 47 49 52 53 54 55 57 57 62 65 68 75 83 87 91 93 99 99 93 88 83 82
9 15 20 26 29 30 33 35 39 40 41 43 48 47 45 44 45 45 45 45 47 48 49 52 52 56 57 56 63 69 65 68 72 75 77 81 85 97 100 102 103 104 97
10 18 24 26 29 32 35 41 44 43 44 43 43 43 42 43 42 44 46 47 48 49 53 56 54 58 59 62 66 68 66 69 66 69 76 75 79 84 86 92 93 94 100
25 28 30 31 32 35 38 39 40 40 40 41 40 39 41 44 45 46 48 49 48 56 58 61 63 66 68 68 67 62 63 67 69 62 65 67 73 71 76 82 87 87 86
27 28 31 35 38 38 40 40 40 38 36 36 37 40 42 44 44 46 47 48 50 52 56 54 56 56 58 58 54 52 57 60 61 55 61 58 59 63 70 84 90 92 94
29 34 37 38 37 37 37 36 36 33 32 33 38 39 41 43 46 47 48 51 52 57 52 54 52 54 56 49 50 49 51 49 50 49 46 49 49 51 73 91 105 115 107
34 37 36 36 35 36 33 34 32 33 31 34 36 40 41 44 46 49 49 51 57 52 51 54 54 50 49 46 33 28 40 45 46 43 43 33 9 30 7 9 22 37 37
37 35 35 34 34 31 32 32 33 28 32 35 41 42 42 46 45 48 47 49 50 49 47 54 54 42 44 40 38 36 45 42 46 48 44 32 16 13 23 25 44 45 44
35 33 35 34 29 30 29 30 27 31 36 39 41 39 40 39 42 44 49 55 52 53 52 48 50 54 38 33 41 41 57 35 41 45 35 27 14 16 12 8 26 24 20
34 32 33 32 35 29 25 24 28 33 35 37 39 39 38 41 44 46 46 47 62 52 44 47 51 44 41 43 37 44 28 21 27 26 27 24 19 15 5 8 16 8 15
32 33 34 34 31 29 27 25 27 32 34 34 37 39 33 36 46 57 48 48 45 44 49 43 39 38 40 46 38 13 10 10 10 15 25 24 19 10 7 12 16 16 14
35 36 31 31 32 30 27 27 28 29 30 32 34 37 32 36 50 58 56 39 31 32 29 30 32 30 46 26 5 10 8 6 2 11 11 20 19 8 13 18 17 15 15
Wind_Direction_850mb
242 259 285 294 280 271 264 241 235 231 227 226 224 221 225 223 221 220 217 217 214 220 231 227 241 243 245 250 251 264 276 278 278 277 281 281 276 274 272 271 267 264 262
230 256 284 262 269 281 266 242 230 237 234 227 224 217 217 217 214 217 220 220 220 223 227 229 236 246 249 269 268 269 273 277 279 282 287 288 288 279 274 273 271 271 266
220 243 252 247 281 289 251 233 232 230 225 215 210 215 201 205 206 208 215 223 219 221 225 245 246 253 263 255 268 277 277 283 281 273 274 285 282 291 281 272 277 271 271
215 234 259 251 262 274 246 232 225 223 218 221 218 217 213 218 215 216 207 219 222 235 246 251 256 261 248 247 260 272 274 276 287 286 280 273 278 284 287 276 272 272 271
238 268 264 263 257 231 211 213 218 219 218 222 219 232 225 219 205 196 220 230 243 245 250 256 252 255 259 258 261 260 274 272 277 284 286 282 279 279 276 281 280 275 273
184 203 224 215 208 214 210 214 215 220 207 190 187 183 189 194 204 225 235 241 244 251 254 254 258 261 261 259 263 265 270 274 269 270 274 280 281 282 281 282 281 281 283
124 119 109 106 122 143 160 164 172 184 184 187 193 201 209 216 228 244 253 244 249 254 258 263 256 257 265 264 266 264 268 267 266 266 271 273 276 281 281 281 283 282 281
102 98 100 102 102 103 112 125 131 155 180 193 204 215 227 238 246 261 252 255 258 258 258 257 260 262 258 255 257 257 260 261 263 264 269 265 270 276 279 279 283 285 284
99 100 99 98 92 91 91 96 120 167 190 216 228 238 247 253 256 261 266 271 263 269 273 271 268 265 261 256 252 254 252 257 257 258 264 264 264 267 270 275 276 280 285
98 93 89 85 85 81 83 90 81 108 239 260 260 263 265 273 277 276 276 275 274 274 273 273 271 268 265 258 255 255 255 252 253 255 256 258 257 259 261 266 272 275 278
98 89 81 74 67 61 56 44 27 5 320 293 288 288 289 288 287 284 282 281 281 280 278 277 275 272 268 263 258 256 254 252 254 254 252 253 255 257 258 261 266 270 272
95 87 77 70 60 48 35 15 348 340 324 308 300 295 290 288 286 285 285 282 280 278 276 274 272 271 268 265 260 258 257 255 255 256 255 254 254 256 260 259 258 263 265
88 64 49 36 25 10 359 344 335 324 313 306 303 297 295 293 290 289 286 285 283 280 277 276 274 272 269 266 262 261 260 258 258 257 255 255 254 253 253 253 256 261 265
95 53 25 10 0 347 335 326 319 315 311 304 300 297 294 292 291 289 287 286 282 281 281 280 279 276 273 270 267 264 262 260 259 259 259 257 254 253 253 252 254 257 261
134 359 344 340 333 322 314 311 306 309 307 303 300 298 296 294 294 291 287 287 286 285 284 284 283 281 278 275 271 267 265 264 264 263 261 261 260 258 255 255 254 255 258
343 336 332 330 324 318 314 311 313 310 308 304 303 302 300 294 290 290 291 291 290 289 287 286 283 279 273 268 261 262 266 264 264 265 265 261 260 259 258 258 255 255 256
321 318 315 314 312 312 310 309 307 307 304 301 300 300 299 298 298 297 298 297 294 291 290 289 285 283 278 274 271 268 268 270 271 270 270 266 266 258 258 258 256 256 256
323 320 316 313 310 307 308 306 308 308 307 307 307 306 305 305 306 306 303 297 293 292 296 296 293 283 278 272 272 274 271 267 271 273 273 269 269 265 258 257 256 255 255
318 314 312 310 310 312 311 312 313 313 313 310 310 313 314 312 308 305 302 301 297 299 297 293 294 287 286 286 277 273 272 269 268 269 271 269 272 267 264 263 263 262 264
318 315 312 312 312 311 313 314 313 313 309 311 316 316 315 310 306 304 303 304 295 301 300 297 294 287 289 289 284 273 266 268 268 270 271 274 269 273 273 269 266 260 262
320 317 316 315 311 313 314 310 309 306 316 317 314 313 312 310 307 306 303 305 304 303 290 296 302 293 290 292 294 289 274 267 268 266 265 269 246 339 96 279 210 199 184
324 321 318 314 316 316 311 307 309 320 314 314 319 320 319 320 314 311 306 309 311 307 296 305 307 302 298 292 303 288 285 268 256 257 255 273 257 111 61 68 101 106 107
323 322 320 318 318 311 313 316 323 312 317 322 327 320 316 319 320 318 317 320 319 309 302 300 302 317 303 298 296 269 306 248 246 253 262 242 195 196 279 143 147 119 129
327 326 325 322 322 332 328 318 311 314 316 327 332 328 317 320 326 329 322 313 324 318 308 307 307 304 303 304 303 311 329 231 203 237 235 204 178 320 325 203 165 146 148
334 331 330 332 334 329 328 322 315 316 330 334 336 334 325 322 329 340 341 330 328 316 324 315 312 313 308 318 328 305 259 191 158 148 194 225 256 202 225 161 138 138 126
341 346 344 344 340 339 337 329 324 327 330 330 338 339 330 330 342 350 349 356 346 343 335 324 322 338 326 357 59 106 105 137 149 143 180 185 170 191 140 127 121 108 102